This demonstration page uses our WeatherBlox Daily Observations layout. Learn more.

40.92945, -100.16068

Hourly Observations for February 23, 2019

Temp ( °F °C ) Dew Point ( °F °C ) Humidity (%) Winds ( mph kmh ) Pressure ( in mb ) Visibility ( mi km ) Precip ( " mm )
12:15 am 00:15 Cloudy with Mist and Fog 30 -1.2 28 -2 94 94 E 5 7 30.01 1016 2 3.21868 0 0
12:35 am 00:35 Cloudy with Mist and Fog 30 -1.2 28 -2 94 94 E 3 6 30.01 1016 2 3.21868 0 0
12:55 am 00:55 Cloudy with Mist and Fog 30 -1.3 28 -2 95 95 ENE 3 6 30 1016 1.75 2.816345 0 0
1:15 am 01:15 Cloudy with Mist and Fog 30 -1.3 28 -2 95 95 ENE 5 7 29.99 1016 1.25 2.011675 0 0
1:35 am 01:35 Cloudy with Mist and Fog 29 -1.5 28 -2.1 96 96 E 6 9 29.99 1016 1 1.60934 0 0
1:55 am 01:55 Cloudy with Mist and Fog 29 -1.5 28 -2 96 96 E 6 9 29.98 1015 1.25 2.011675 0 0
2:15 am 02:15 Cloudy with Mist and Fog 29 -1.5 28 -2 96 96 ENE 3 6 29.98 1015 1 1.60934 0 0
2:35 am 02:35 Cloudy with Mist and Fog 29 -1.5 28 -2.1 96 96 NNE 6 9 29.97 1015 1.5 2.41401 0 0
2:55 am 02:55 Cloudy with Mist and Fog 29 -1.6 28 -2.2 96 96 NNE 6 9 29.95 1014 1.25 2.011675 0 0
3:15 am 03:15 Cloudy with Mist and Fog 29 -1.7 28 -2.3 96 96 ENE 6 9 29.95 1014 1.25 2.011675 0 0
3:35 am 03:35 Cloudy with Mist and Fog 29 -1.7 28 -2.3 96 96 NNE 5 7 29.96 1015 1.75 2.816345 0 0
3:55 am 03:55 Cloudy with Mist and Fog 29 -1.8 28 -2.5 95 95 NE 7 11 29.95 1014 1.25 2.011675 0 0
4:15 am 04:15 Cloudy with Mist and Fog 28 -2 28 -2.5 96 96 N 6 9 29.98 1015 0.75 1.207005 0 0
4:35 am 04:35 Cloudy with Mist and Fog 28 -2 27 -2.6 96 96 N 9 15 29.97 1015 1 1.60934 0 0
4:55 am 04:55 Cloudy with Mist and Fog 28 -2 27 -2.6 96 96 NNE 7 11 29.95 1014 1.25 2.011675 0 0
5:15 am 05:15 Cloudy with Mist and Fog 28 -2.2 27 -3 94 94 NNE 8 13 29.93 1013 1.25 2.011675 0 0
5:35 am 05:35 Cloudy with Mist and Fog 28 -2.3 27 -3 95 95 NNE 8 13 29.93 1014 2 3.21868 0 0
5:55 am 05:55 Cloudy with Mist and Fog 28 -2.2 27 -3 94 94 NE 7 11 29.93 1013 3 4.82802 0 0
6:15 am 06:15 Cloudy with Mist and Fog 28 -2.3 26 -3.1 94 94 NNE 7 11 29.93 1014 3 4.82802 0 0
6:35 am 06:35 Cloudy with Mist and Fog 28 -2.2 27 -3 94 94 Calm 29.95 1014 4 6.43736 0 0
6:55 am 06:55 Cloudy with Mist and Fog 28 -2 26 -3.1 92 92 Calm 29.97 1015 4 6.43736 0 0
7:15 am 07:15 Cloudy with Mist and Fog 28 -2.2 26 -3.4 92 92 E 3 6 29.97 1015 3 4.82802 0 0
7:35 am 07:35 Cloudy with Mist and Fog 28 -2.5 26 -3.5 93 93 NE 6 9 29.96 1015 2 3.21868 0 0
7:55 am 07:55 Cloudy with Mist and Fog 28 -2.5 26 -3.6 92 92 NNE 8 13 29.94 1014 2 3.21868 0 0
8:15 am 08:15 Cloudy with Mist and Fog 28 -2.5 26 -3.6 92 92 NNE 5 7 29.94 1014 1.75 2.816345 0 0
8:35 am 08:35 Cloudy with Mist and Fog 28 -2.2 26 -3.4 92 92 N 5 7 29.95 1014 2 3.21868 0 0
8:55 am 08:55 Cloudy with Mist and Fog 28 -2 26 -3.2 92 92 NNE 5 7 29.96 1014 2 3.21868 0 0
9:15 am 09:15 Cloudy with Mist and Fog 29 -1.8 26 -3.2 90 90 N 6 9 29.94 1014 2.5 4.02335 0 0
9:35 am 09:35 Cloudy with Mist and Fog 29 -1.5 26 -3.1 89 89 N 10 17 29.92 1013 4 6.43736 0 0
9:55 am 09:55 Cloudy with Mist and Fog 29 -1.5 26 -3.5 86 86 N 17 28 29.89 1012 4 6.43736 0 0
10:15 am 10:15 Cloudy with Mist and Fog 29 -1.7 25 -3.9 85 85 N 16 26 29.89 1012 4 6.43736 0 0
10:35 am 10:35 Cloudy with Mist and Fog 29 -1.8 25 -4.1 84 84 N 23 37 29.88 1012 4 6.43736 0 0
10:55 am 10:55 Windy with Snow Likely 28 -2.1 24 -4.3 85 85 N 23 37 29.89 1012 1.25 2.011675 0 0
11:15 am 11:15 Windy with Snow Likely 28 -2.4 24 -4.4 86 86 N 23 37 29.89 1012 1 1.60934 0 0
11:35 am 11:35 Windy with Snow Likely 28 -2.5 24 -4.5 86 86 N 25 41 29.89 1012 1.25 2.011675 0 0
11:55 am 11:55 Windy with Snow Likely 28 -2.5 24 -4.4 87 87 N 23 37 29.88 1012 0.75 1.207005 0 0
12:15 pm 12:15 Windy with Snow Likely 28 -2.3 24 -4.3 86 86 N 24 39 29.88 1012 1.25 2.011675 0 0
12:35 pm 12:35 Windy with Snow Likely 28 -2.5 24 -4.5 86 86 N 23 37 29.88 1012 1.25 2.011675 0 0
12:55 pm 12:55 Windy with Snow Likely 28 -2.5 24 -4.5 86 86 N 25 41 29.86 1011 1.5 2.41401 0 0
1:15 pm 13:15 Windy with Snow Likely 27 -2.7 24 -4.7 86 86 N 22 35 29.87 1012 1.5 2.41401 0 0
1:35 pm 13:35 Windy with Snow Likely 27 -3 23 -5.1 86 86 NNW 23 37 29.88 1012 1.25 2.011675 0 0
1:55 pm 13:55 Windy with Snow Likely 26 -3.2 22 -5.3 86 86 NNW 25 41 29.89 1012 0.75 1.207005 0 0
2:15 pm 14:15 Windy with Snow Likely 27 -3 22 -5.3 84 84 NNW 22 35 29.88 1012 2 3.21868 0 0
2:35 pm 14:35 Cloudy 28 -2.5 22 -5.3 81 81 NNW 16 26 29.88 1012 7 11.26538 0 0
2:55 pm 14:55 Cloudy 28 -2.5 22 -5.5 80 80 NNW 23 37 29.88 1012 10 16.0934 0 0
3:15 pm 15:15 Cloudy 28 -2.3 22 -5.6 78 78 NNW 20 31 29.88 1012 7 11.26538 0 0
3:35 pm 15:35 Windy with Snow Likely 28 -2.4 22 -5.7 78 78 NNW 24 39 29.88 1012 4 6.43736 0 0
3:55 pm 15:55 Cloudy 28 -2.1 23 -5 81 81 NNW 21 33 29.9 1012 7 11.26538 0 0
4:15 pm 16:15 Cloudy 29 -1.7 21 -5.9 73 73 NNW 23 37 29.89 1012 10 16.0934 0 0
4:35 pm 16:35 Cloudy 30 -1.2 21 -6 70 70 NNW 21 33 29.89 1012 10 16.0934 0 0
4:55 pm 16:55 Cloudy 30 -1.1 22 -5.7 71 71 NW 18 30 29.9 1012 10 16.0934 0 0
5:15 pm 17:15 Cloudy 30 -1 22 -5.8 70 70 NW 24 39 29.92 1013 10 16.0934 0 0
5:35 pm 17:35 Cloudy 30 -1.1 20 -6.4 68 68 NW 25 41 29.93 1013 10 16.0934 0 0
5:55 pm 17:55 Mostly Cloudy 30 -1.3 19 -7.2 65 65 NW 23 37 29.94 1014 10 16.0934 0 0
6:15 pm 18:15 Partly Cloudy 29 -1.5 18 -7.7 63 63 NW 21 33 29.95 1014 10 16.0934 0 0
6:35 pm 18:35 Partly Cloudy 29 -1.6 18 -7.7 64 64 NW 21 33 29.96 1015 10 16.0934 0 0
6:55 pm 18:55 Partly Cloudy 28 -2.4 17 -8.5 63 63 NW 15 24 29.99 1016 10 16.0934 0 0
7:15 pm 19:15 Clear 27 -3 16 -8.9 64 64 NW 16 26 30.01 1016 10 16.0934 0 0
7:35 pm 19:35 Clear 26 -3.4 16 -8.9 66 66 WNW 16 26 30.02 1017 10 16.0934 0 0
7:55 pm 19:55 Clear 25 -3.8 16 -9 68 68 WNW 16 26 30.03 1017 10 16.0934 0 0
8:15 pm 20:15 Clear 26 -3.2 17 -8.6 67 67 NW 18 30 30.04 1017 10 16.0934 0 0
8:35 pm 20:35 Clear 26 -3.3 16 -8.7 67 67 NW 17 28 30.05 1018 10 16.0934 0 0
8:55 pm 20:55 Clear 26 -3.6 16 -8.7 68 68 WNW 17 28 30.07 1018 10 16.0934 0 0
9:15 pm 21:15 Clear 26 -3.2 16 -8.8 66 66 WNW 20 31 30.08 1019 10 16.0934 0 0
9:35 pm 21:35 Clear 25 -3.8 15 -9.3 66 66 WNW 20 31 30.11 1019 10 16.0934 0 0
9:55 pm 21:55 Clear 24 -4.2 15 -9.5 67 67 WNW 18 30 30.12 1020 10 16.0934 0 0
10:15 pm 22:15 Clear 25 -4.1 15 -9.7 65 65 WNW 21 33 30.13 1020 10 16.0934 0 0
10:35 pm 22:35 Clear 25 -4.1 14 -10 64 64 WNW 20 31 30.14 1021 10 16.0934 0 0
10:55 pm 22:55 Clear 24 -4.2 14 -10 64 64 WNW 21 33 30.15 1021 10 16.0934 0 0
11:15 pm 23:15 Clear 24 -4.5 14 -10.1 65 65 WNW 21 33 30.16 1021 10 16.0934 0 0
11:35 pm 23:35 Clear 24 -4.6 13 -10.4 64 64 NW 17 28 30.17 1022 10 16.0934 0 0
11:55 pm 23:55 Clear 23 -5 13 -10.6 65 65 NW 20 31 30.19 1022 10 16.0934 0 0

Powered by AerisWeather